Regional Weather Roundup
Issued by NWS Spokane, WA

Home | Current Version | Previous Version | Text Only | Print | Product List | Glossary On
Versions: 1 2 3 4 5 6 7 8 9 10 11 12 13 14 15 16 17 18 19 20 21 22 23 24 25 26 27 28 29 30 31 32 33 34 35 36 37 38 39 40 41 42 43 44 45 46 47 48 49 50
000
NZUS01 KOTX 011210
RWROTX
EASTERN WASHINGTON/NORTHERN IDAHO ROUNDUP
NATIONAL WEATHER SERVICE, SPOKANE WA
400 AM PST SUN MAR 01 2015

Note: "fair" indicated few or no clouds below 12,000 feet with no
significant weather and/or obstructions to visibility.

...NORTHEAST WASHINGTON AND NORTHERN IDAHO PANHANDLE...

CITY           SKY/WX    TMP DP  RH WIND       PRES   REMARKS
SPOKANE INTL   PTCLDY    24  10  55 E3        30.21S
SPOKANE DOWNTO CLEAR     20  12  71 CALM      30.25S
COEUR D ALENE  CLEAR     19   9  63 E6        30.23S WCI  11
DEER PARK      CLEAR     16  11  80 CALM      30.23F
SANDPOINT      CLEAR     19  12  73 CALM      30.26S
BONNERS FERRY  FAIR      23   9  54 CALM      30.25S

...SOUTHEAST WASHINGTON AND SOUTHERN IDAHO PANHANDLE...

CITY           SKY/WX    TMP DP  RH WIND       PRES   REMARKS
WALLA WALLA    CLEAR     27  18  69 E6        30.25S WCI  20
PULLMAN/MOSCOW CLEAR     27   9  46 NE3       30.22S
LEWISTON       CLEAR     28  18  66 CALM      30.26R
LOWELL           N/A     25  19  78 N5        30.32R WCI  19

...COLUMBIA BASIN...

CITY           SKY/WX    TMP DP  RH WIND       PRES   REMARKS
EPHRATA        CLEAR     25  18  74 N6        30.24S WCI  18
MOSES LAKE     CLEAR     22  18  85 N6        30.25F WCI  14
TRI CITIES     CLEAR     21  15  78 CALM      30.30R
HERMISTON      CLEAR     20  15  81 SE3       30.28R
PENDLETON      CLEAR     26  18  71 SE8       30.24R WCI  18

...EAST SLOPES CASCADES...

CITY           SKY/WX    TMP DP  RH WIND       PRES   REMARKS
THE DALLES     CLEAR     26  21  81 CALM      30.31R
YAKIMA         CLEAR     26  20  77 NW8       30.27F WCI  18
ELLENSBURG     CLEAR     26  17  68 E3        30.23F
WENATCHEE      PTCLDY    31  24  75 CALM      30.25F
OMAK           PTCLDY    26  15  63 W3        30.25F

...SOUTHERN BRITISH COLUMBIA...

CITY           SKY/WX    TMP DP  RH WIND       PRES   REMARKS
PENTICTON      PTCLDY    25  19  80 NE3       30.26F
CRANBROOK      CLEAR     14   7  73 S5        30.23S WCI   6

...WESTERN MONTANA...

CITY           SKY/WX    TMP DP  RH WIND       PRES   REMARKS
MISSOULA       CLEAR     15   8  73 SE7       30.29S WCI   5

...NEIGHBORING CITIES...

CITY           SKY/WX    TMP DP  RH WIND       PRES   REMARKS
SEATTLE        CLEAR     36  29  75 SE6       30.23F
CALGARY        CLEAR     10   5  79 SW2       30.15F



USA.gov is the U.S. government's official web portal to all federal, state and local government web resources and services.